Location: Tel Aviv
(32.0670°N, 34.7670°E)
Time: 21:57:38
(UTC+02:00)

CUTE-I - Pass Details

Date: 17 December 2025
Orbit: 805 x 817 km, 98.7° (Epoch: 21 January)

Event Time Altitude Azimuth Distance (km) Brightness Sun altitude
Rises 04:40:03 0° 38° (NE) 3,344 ? -23.7°
Reaches altitude 10° 04:43:43 10° 64° (ENE) 2,409 ? -22.9°
Maximum altitude 04:46:17 14° 93° (E) 2,163 ? -22.4°
Drops below altitude 10° 04:48:51 10° 122° (ESE) 2,403 ? -21.9°
Sets 04:52:28 0° 148° (SSE) 3,331 ? -21.1°
